When you browse on this site, cookies collect data to enhance your experience and personalize the content and advertising you see.
Visit our Privacy Policy to learn more. By continuing to use the site, you agree to this use of cookies and data.
  • In Hungary
  • List of Countries
  • For 7 days
  • Water Temperature
  • Satellite Maps
  • Weather Map
  • News
  • Weather Widgets
  • user-avatar
    Login

    Hourly Weather Hammamet

    Today, 22 April, Monday

    Time Temperature Precipitation Wind Pressure Humidity
    00:00 +15°C° 0 mm 9 mps 750 mmHg 87%
    01:00 +15°C° 0 mm 9 mps 749 mmHg 87%
    02:00 +15°C° 0 mm 8 mps 749 mmHg 88%
    03:00 +15°C° 0 mm 8 mps 748 mmHg 88%
    04:00 +15°C° 0 mm 7 mps 747 mmHg 89%
    05:00 +16°C° 0 mm 6 mps 747 mmHg 86%
    06:00 +16°C° 0 mm 5 mps 747 mmHg 83%
    07:00 +18°C° 0 mm 4 mps 746 mmHg 80%
    08:00 +20°C° 0 mm 5 mps 746 mmHg 72%
    09:00 +21°C° 0 mm 6 mps 746 mmHg 63%
    10:00 +23°C° 0 mm 7 mps 746 mmHg 55%
    11:00 +24°C° 0 mm 7 mps 746 mmHg 50%
    12:00 +27°C° 0 mm 6 mps 746 mmHg 45%
    13:00 +28°C° 0 mm 6 mps 745 mmHg 39%
    14:00 +28°C° 0 mm 8 mps 745 mmHg 35%
    15:00 +29°C° 0 mm 9 mps 745 mmHg 30%
    16:00 +31°C° 0 mm 10 mps 745 mmHg 25%
    17:00 +28°C° 0.1 mm 9 mps 746 mmHg 34%
    18:00 +26°C° 0.1 mm 8 mps 746 mmHg 42%
    19:00 +23°C° 0.1 mm 6 mps 747 mmHg 51%
    20:00 +21°C° 0.1 mm 6 mps 748 mmHg 60%
    21:00 +19°C° 0.1 mm 6 mps 749 mmHg 70%
    22:00 +16°C° 0.1 mm 5 mps 750 mmHg 79%
    23:00 +17°C° 0 mm 4 mps 751 mmHg 79%

    Tomorrow, 23 April, Tuesday

    Time Temperature Precipitation Wind Pressure Humidity
    00:00 +16°C° 0 mm 2 mps 751 mmHg 79%
    01:00 +16°C° 0 mm 1 mps 751 mmHg 78%
    02:00 +16°C° 0 mm 1 mps 751 mmHg 79%
    03:00 +15°C° 0 mm 2 mps 751 mmHg 80%
    04:00 +15°C° 0 mm 2 mps 751 mmHg 81%
    05:00 +16°C° 0.1 mm 3 mps 751 mmHg 81%
    06:00 +16°C° 0.1 mm 3 mps 751 mmHg 81%
    07:00 +17°C° 0.1 mm 3 mps 752 mmHg 81%
    08:00 +18°C° 0.2 mm 3 mps 752 mmHg 75%
    09:00 +20°C° 0.2 mm 2 mps 752 mmHg 70%
    10:00 +21°C° 0.2 mm 2 mps 752 mmHg 64%
    11:00 +24°C° 0 mm 3 mps 752 mmHg 53%
    12:00 +27°C° 0 mm 4 mps 752 mmHg 42%
    13:00 +29°C° 0 mm 4 mps 752 mmHg 32%
    14:00 +28°C° 0 mm 4 mps 752 mmHg 36%
    15:00 +27°C° 0 mm 4 mps 752 mmHg 40%
    16:00 +26°C° 0 mm 4 mps 752 mmHg 45%
    17:00 +23°C° 0 mm 5 mps 752 mmHg 56%
    18:00 +21°C° 0 mm 6 mps 753 mmHg 67%
    19:00 +19°C° 0 mm 6 mps 753 mmHg 78%
    20:00 +17°C° 0 mm 6 mps 754 mmHg 79%
    21:00 +16°C° 0 mm 5 mps 755 mmHg 80%
    22:00 +17°C° 0 mm 4 mps 756 mmHg 81%
    23:00 +17°C° 0 mm 3 mps 756 mmHg 82%

    Day after tomorrow, 24 April, Wednesday

    Time Temperature Precipitation Wind Pressure Humidity
    00:00 +16°C° 0 mm 3 mps 756 mmHg 83%
    01:00 +16°C° 0 mm 2 mps 756 mmHg 84%
    02:00 +16°C° 0 mm 2 mps 756 mmHg 84%
    03:00 +15°C° 0 mm 2 mps 756 mmHg 85%
    04:00 +15°C° 0 mm 1 mps 756 mmHg 86%
    05:00 +16°C° 0 mm 1 mps 756 mmHg 80%
    06:00 +18°C° 0 mm 1 mps 756 mmHg 73%
    07:00 +19°C° 0 mm 1 mps 756 mmHg 67%
    08:00 +20°C° 0 mm 2 mps 756 mmHg 60%
    09:00 +23°C° 0 mm 2 mps 757 mmHg 53%
    10:00 +25°C° 0 mm 3 mps 757 mmHg 46%
    11:00 +25°C° 0 mm 3 mps 757 mmHg 47%
    12:00 +25°C° 0 mm 3 mps 757 mmHg 47%
    13:00 +26°C° 0 mm 4 mps 757 mmHg 47%
    14:00 +25°C° 0 mm 4 mps 757 mmHg 49%
    15:00 +25°C° 0 mm 5 mps 757 mmHg 52%
    16:00 +25°C° 0 mm 5 mps 757 mmHg 54%
    17:00 +22°C° 0 mm 5 mps 757 mmHg 61%
    18:00 +21°C° 0 mm 5 mps 757 mmHg 68%
    19:00 +19°C° 0 mm 5 mps 758 mmHg 75%
    20:00 +17°C° 0 mm 5 mps 758 mmHg 78%
    21:00 +17°C° 0 mm 5 mps 759 mmHg 82%
    22:00 +16°C° 0 mm 5 mps 759 mmHg 85%
    23:00 +17°C° 0 mm 4 mps 759 mmHg 88%

    25 April, Thursday

    Time Temperature Precipitation Wind Pressure Humidity
    00:00 +15°C° 0 mm 4 mps 759 mmHg 91%
    01:00 +15°C° 0 mm 4 mps 759 mmHg 93%
    02:00 +14°C° 0 mm 4 mps 759 mmHg 93%
    03:00 +14°C° 0 mm 4 mps 758 mmHg 93%
    04:00 +14°C° 0 mm 4 mps 758 mmHg 93%
    05:00 +15°C° 0 mm 4 mps 758 mmHg 91%
    06:00 +15°C° 0 mm 4 mps 759 mmHg 88%
    07:00 +17°C° 0 mm 4 mps 759 mmHg 85%
    08:00 +18°C° 0 mm 4 mps 759 mmHg 79%
    09:00 +20°C° 0 mm 5 mps 760 mmHg 72%
    10:00 +21°C° 0 mm 5 mps 760 mmHg 66%
    11:00 +22°C° 0 mm 5 mps 760 mmHg 62%
    12:00 +25°C° 0 mm 5 mps 760 mmHg 57%
    13:00 +26°C° 0 mm 4 mps 760 mmHg 53%
    14:00 +26°C° 0 mm 5 mps 760 mmHg 54%
    15:00 +25°C° 0 mm 5 mps 760 mmHg 55%
    16:00 +24°C° 0 mm 6 mps 760 mmHg 57%
    17:00 +22°C° 0 mm 5 mps 760 mmHg 64%
    18:00 +20°C° 0 mm 5 mps 760 mmHg 71%
    19:00 +19°C° 0 mm 4 mps 761 mmHg 78%
    20:00 +18°C° 0 mm 4 mps 761 mmHg 80%
    21:00 +17°C° 0 mm 3 mps 762 mmHg 82%
    22:00 +17°C° 0 mm 3 mps 763 mmHg 83%
    23:00 +16°C° 0 mm 3 mps 763 mmHg 84%

    26 April, Friday

    Time Temperature Precipitation Wind Pressure Humidity
    00:00 +16°C° 0 mm 3 mps 763 mmHg 84%
    01:00 +16°C° 0 mm 3 mps 763 mmHg 85%
    02:00 +16°C° 0 mm 3 mps 763 mmHg 85%
    03:00 +14°C° 0 mm 3 mps 762 mmHg 85%
    04:00 +14°C° 0 mm 4 mps 762 mmHg 85%
    05:00 +15°C° 0 mm 4 mps 763 mmHg 82%
    06:00 +15°C° 0 mm 4 mps 763 mmHg 78%
    07:00 +16°C° 0 mm 5 mps 763 mmHg 74%
    08:00 +19°C° 0 mm 5 mps 764 mmHg 65%
    09:00 +21°C° 0 mm 6 mps 764 mmHg 56%
    10:00 +23°C° 0 mm 6 mps 764 mmHg 47%
    11:00 +23°C° 0 mm 7 mps 764 mmHg 45%
    12:00 +24°C° 0 mm 8 mps 764 mmHg 43%
    13:00 +26°C° 0 mm 8 mps 764 mmHg 41%
    14:00 +24°C° 0 mm 8 mps 764 mmHg 43%
    15:00 +24°C° 0 mm 9 mps 764 mmHg 45%
    16:00 +23°C° 0 mm 9 mps 764 mmHg 47%
    17:00 +22°C° 0 mm 8 mps 764 mmHg 52%
    18:00 +21°C° 0 mm 7 mps 764 mmHg 57%
    19:00 +19°C° 0 mm 6 mps 765 mmHg 62%
    20:00 +19°C° 0 mm 6 mps 765 mmHg 64%
    21:00 +17°C° 0 mm 6 mps 765 mmHg 67%
    22:00 +16°C° 0 mm 6 mps 766 mmHg 70%
    23:00 +16°C° 0 mm 6 mps 766 mmHg 70%

    27 April, Saturday

    Time Temperature Precipitation Wind Pressure Humidity
    00:00 +16°C° 0 mm 6 mps 766 mmHg 71%
    01:00 +15°C° 0 mm 6 mps 766 mmHg 72%
    02:00 +15°C° 0 mm 6 mps 765 mmHg 72%
    03:00 +14°C° 0 mm 7 mps 765 mmHg 72%
    04:00 +14°C° 0 mm 7 mps 765 mmHg 72%
    05:00 +14°C° 0 mm 7 mps 766 mmHg 69%
    06:00 +15°C° 0 mm 7 mps 766 mmHg 66%
    07:00 +15°C° 0 mm 7 mps 766 mmHg 63%
    08:00 +17°C° 0 mm 7 mps 766 mmHg 56%
    09:00 +18°C° 0 mm 7 mps 766 mmHg 49%
    10:00 +21°C° 0 mm 7 mps 766 mmHg 42%
    11:00 +22°C° 0 mm 7 mps 766 mmHg 41%
    12:00 +22°C° 0 mm 7 mps 766 mmHg 40%
    13:00 +23°C° 0 mm 7 mps 766 mmHg 39%
    14:00 +23°C° 0 mm 8 mps 766 mmHg 40%
    15:00 +22°C° 0 mm 8 mps 765 mmHg 42%
    16:00 +22°C° 0 mm 8 mps 765 mmHg 43%
    17:00 +21°C° 0 mm 7 mps 765 mmHg 48%
    18:00 +18°C° 0 mm 7 mps 765 mmHg 53%
    19:00 +17°C° 0 mm 6 mps 766 mmHg 58%
    20:00 +16°C° 0 mm 5 mps 766 mmHg 61%
    21:00 +15°C° 0 mm 5 mps 766 mmHg 63%
    22:00 +14°C° 0 mm 4 mps 767 mmHg 66%
    23:00 +14°C° 0 mm 4 mps 766 mmHg 67%
    Show more